Yuma, AZ

1:18 PM MST on October 01, 2016 (GMT -0700)
Yuma Marine Corps Air Station

Weather History for KNYL - January, 2014

Change the Weather History Date:

Saturday, January 4, 2014

  Actual Average Record
Temperature  
Mean Temperature 63 °F 58 °F  
Max Temperature 74 °F 68 °F 81 °F (1918)
Min Temperature 52 °F 47 °F 25 °F (1910)
Degree Days  
Heating Degree Days 2 8  
Month to date heating degree days 13 32  
Since 1 July heating degree days 254 336  
Cooling Degree Days 0 0  
Month to date cooling degree days 0 0  
Year to date cooling degree days 0 0  
Growing Degree Days 14 (Base 50)    
Moisture  
Dew Point 34 °F    
Average Humidity 37    
Maximum Humidity 51    
Minimum Humidity 22    
Precipitation  
Precipitation 0.00 in 0.02 in 0.22 in (2005)
Month to date precipitation 0.00 0.07  
Year to date precipitation 0.00 0.07  
Sea Level Pressure  
Sea Level Pressure 29.94 in    
Wind  
Wind Speed 2 mph (ENE)    
Max Wind Speed 10 mph    
Max Gust Speed 12 mph    
Visibility 10 miles    
Events      
T = Trace of Precipitation, MM = Missing Value Source: NWS Daily Summary

Daily Weather History Graph

Daily Weather History Graph

Search for Another Location

Airport or City:

Trip Planner

Search our weather history database for the weather conditions in past years. The results will help you decide how hot, cold, wet, or windy it might be!

Date:

Astronomy

Jan. 04, 2014 Rise Set
Actual Time 7:41 AM MST 5:46 PM MST
Civil Twilight 7:14 AM MST 6:13 PM MST
Nautical Twilight 6:43 AM MST 6:43 PM MST
Astronomical Twilight 6:13 AM MST 7:13 PM MST
Moon 10:02 AM MST (1/4) 9:55 PM MST (1/4)
Length of Visible Light 10h 59m
Length of Day
10h 04m
Waxing Crescent, 16% of the Moon is Illuminated
Jan 4
Waxing Crescent
Jan 7
First Quarter
Jan 15
Full
Jan 23
Last Quarter
Jan 30
New

Hourly Weather History & Observations

Time (MST) Temp. Dew Point Humidity Pressure Visibility Wind Dir Wind Speed Gust Speed Precip Events Conditions
12:57 AM 55.0 °F 30.9 °F 40% 29.92 in 10.0 mi Calm Calm - N/A   Clear
1:57 AM 55.0 °F 32.0 °F 42% 29.91 in 10.0 mi Calm Calm - N/A   Clear
2:57 AM 54.0 °F 32.0 °F 43% 29.91 in 10.0 mi ENE 4.6 mph - N/A   Clear
3:57 AM 55.0 °F 32.0 °F 42% 29.91 in 10.0 mi Calm Calm - N/A   Clear
4:57 AM 55.9 °F 32.0 °F 40% 29.91 in 10.0 mi ENE 3.5 mph - N/A   Clear
5:57 AM 55.0 °F 33.1 °F 43% 29.91 in 10.0 mi ENE 4.6 mph - N/A   Overcast
6:57 AM 55.0 °F 34.0 °F 45% 29.91 in 10.0 mi NE 3.5 mph - N/A   Overcast
7:57 AM 54.0 °F 36.0 °F 51% 29.93 in 10.0 mi East 3.5 mph - N/A   Overcast
8:57 AM 57.0 °F 35.1 °F 44% 29.94 in 10.0 mi SE 3.5 mph - N/A   Overcast
9:57 AM 57.9 °F 36.0 °F 44% 29.97 in 10.0 mi NE 5.8 mph - N/A   Mostly Cloudy
10:57 AM 63.0 °F 35.1 °F 35% 29.97 in 10.0 mi ENE 4.6 mph - N/A   Mostly Cloudy
11:57 AM 66.9 °F 35.1 °F 31% 29.95 in 10.0 mi Variable 3.5 mph - N/A   Mostly Cloudy
12:57 PM 70.0 °F 34.0 °F 27% 29.93 in 10.0 mi Variable 3.5 mph - N/A   Mostly Cloudy
1:57 PM 70.0 °F 33.1 °F 26% 29.91 in 10.0 mi Calm Calm - N/A   Mostly Cloudy
2:57 PM 71.1 °F 30.0 °F 22% 29.91 in 10.0 mi Calm Calm - N/A   Mostly Cloudy
3:57 PM 73.0 °F 33.1 °F 23% 29.91 in 10.0 mi NE 3.5 mph - N/A   Mostly Cloudy
4:57 PM 72.0 °F 33.1 °F 24% 29.91 in 10.0 mi Calm Calm - N/A   Mostly Cloudy
5:57 PM 68.0 °F 36.0 °F 31% 29.92 in 10.0 mi Calm Calm - N/A   Mostly Cloudy
6:57 PM 63.0 °F 35.1 °F 35% 29.94 in 10.0 mi Calm Calm - N/A   Mostly Cloudy
7:57 PM 59.0 °F 37.9 °F 46% 29.96 in 10.0 mi Calm Calm - N/A   Mostly Cloudy
8:57 PM 57.0 °F 37.9 °F 49% 29.99 in 10.0 mi Calm Calm - N/A   Mostly Cloudy
9:57 PM 57.0 °F 36.0 °F 45% 30.00 in 10.0 mi Calm Calm - N/A   Mostly Cloudy
10:57 PM 55.0 °F 37.0 °F 51% 30.01 in 10.0 mi Calm Calm - N/A   Scattered Clouds
11:57 PM 53.1 °F 37.0 °F 55% 30.02 in 10.0 mi Calm Calm - N/A   Clear